Hourly Weather Zhlobin

Today, 8 August, Saturday

Time Temperature Precipitation Wind Pressure Humidity
00:00 +19°C° 0 mm 2 mps 756 mmHg 93%
01:00 +18°C° 0 mm 2 mps 756 mmHg 94%
02:00 +18°C° 0 mm 2 mps 756 mmHg 95%
03:00 +18°C° 0 mm 2 mps 756 mmHg 95%
04:00 +18°C° 0 mm 1 mps 756 mmHg 95%
05:00 +18°C° 0 mm 1 mps 756 mmHg 94%
06:00 +19°C° 0 mm 2 mps 756 mmHg 88%
07:00 +20°C° 0 mm 2 mps 756 mmHg 82%
08:00 +23°C° 0 mm 2 mps 756 mmHg 75%
09:00 +24°C° 0.1 mm 2 mps 756 mmHg 74%
10:00 +24°C° 0.1 mm 2 mps 756 mmHg 73%
11:00 +24°C° 0.1 mm 2 mps 755 mmHg 72%
12:00 +24°C° 0.1 mm 2 mps 755 mmHg 71%
13:00 +24°C° 0.1 mm 2 mps 755 mmHg 71%
14:00 +25°C° 0 mm 2 mps 754 mmHg 72%
15:00 +25°C° 0 mm 2 mps 754 mmHg 70%
16:00 +25°C° 0 mm 2 mps 753 mmHg 68%
17:00 +25°C° 0 mm 2 mps 753 mmHg 66%
18:00 +24°C° 0 mm 2 mps 753 mmHg 72%
19:00 +22°C° 0 mm 1 mps 753 mmHg 79%
20:00 +21°C° 0 mm 1 mps 753 mmHg 85%
21:00 +20°C° 0 mm 1 mps 753 mmHg 87%
22:00 +20°C° 0 mm 1 mps 753 mmHg 88%
23:00 +19°C° 0 mm 1 mps 753 mmHg 90%

Tomorrow, 9 August, Sunday

Time Temperature Precipitation Wind Pressure Humidity
00:00 +19°C° 0 mm 1 mps 753 mmHg 91%
01:00 +18°C° 0 mm 1 mps 753 mmHg 92%
02:00 +18°C° 0 mm 1 mps 753 mmHg 93%
03:00 +18°C° 0 mm 1 mps 753 mmHg 93%
04:00 +18°C° 0 mm 1 mps 752 mmHg 94%
05:00 +18°C° 0 mm 1 mps 752 mmHg 94%
06:00 +19°C° 0 mm 1 mps 752 mmHg 88%
07:00 +21°C° 0 mm 1 mps 752 mmHg 82%
08:00 +23°C° 0 mm 1 mps 752 mmHg 76%
09:00 +24°C° 0.1 mm 2 mps 752 mmHg 70%
10:00 +25°C° 0.1 mm 2 mps 752 mmHg 65%
11:00 +26°C° 0.1 mm 2 mps 752 mmHg 59%
12:00 +26°C° 0.3 mm 2 mps 752 mmHg 60%
13:00 +27°C° 0.3 mm 2 mps 751 mmHg 60%
14:00 +27°C° 0.3 mm 3 mps 751 mmHg 61%
15:00 +26°C° 0.3 mm 3 mps 751 mmHg 63%
16:00 +26°C° 0.3 mm 2 mps 751 mmHg 65%
17:00 +26°C° 0.3 mm 2 mps 750 mmHg 67%
18:00 +24°C° 0 mm 2 mps 750 mmHg 73%
19:00 +21°C° 0 mm 2 mps 751 mmHg 80%
20:00 +20°C° 0 mm 2 mps 751 mmHg 86%
21:00 +19°C° 0.1 mm 2 mps 751 mmHg 88%
22:00 +19°C° 0.1 mm 2 mps 751 mmHg 89%
23:00 +18°C° 0.1 mm 2 mps 751 mmHg 91%

Day after tomorrow, 10 August, Monday

Time Temperature Precipitation Wind Pressure Humidity
00:00 +18°C° 0.1 mm 2 mps 751 mmHg 92%
01:00 +18°C° 0.1 mm 2 mps 751 mmHg 92%
02:00 +18°C° 0.1 mm 2 mps 750 mmHg 93%
03:00 +18°C° 0 mm 1 mps 750 mmHg 93%
04:00 +18°C° 0 mm 1 mps 750 mmHg 93%
05:00 +18°C° 0 mm 1 mps 750 mmHg 93%
06:00 +20°C° 0 mm 1 mps 750 mmHg 89%
07:00 +20°C° 0 mm 2 mps 750 mmHg 84%
08:00 +21°C° 0 mm 2 mps 751 mmHg 80%
09:00 +24°C° 0.9 mm 2 mps 750 mmHg 76%
10:00 +25°C° 0.9 mm 2 mps 750 mmHg 71%
11:00 +26°C° 0.9 mm 2 mps 750 mmHg 67%
12:00 +26°C° 1.2 mm 2 mps 750 mmHg 65%
13:00 +26°C° 1.2 mm 1 mps 750 mmHg 62%
14:00 +27°C° 1.2 mm 1 mps 750 mmHg 59%
15:00 +27°C° 0.5 mm 1 mps 749 mmHg 62%
16:00 +26°C° 0.5 mm 1 mps 749 mmHg 65%
17:00 +26°C° 0.5 mm 1 mps 749 mmHg 68%
18:00 +24°C° 0.1 mm 1 mps 749 mmHg 73%
19:00 +23°C° 0.1 mm 1 mps 749 mmHg 79%
20:00 +21°C° 0.1 mm 1 mps 749 mmHg 84%
21:00 +21°C° 0.1 mm 1 mps 749 mmHg 86%
22:00 +20°C° 0.1 mm 1 mps 749 mmHg 87%
23:00 +20°C° 0.1 mm 1 mps 749 mmHg 88%

11 August, Tuesday

Time Temperature Precipitation Wind Pressure Humidity
00:00 +19°C° 0 mm 1 mps 749 mmHg 90%
01:00 +18°C° 0 mm 2 mps 749 mmHg 91%
02:00 +18°C° 0 mm 2 mps 749 mmHg 93%
03:00 +17°C° 0 mm 2 mps 749 mmHg 94%
04:00 +17°C° 0 mm 2 mps 749 mmHg 95%
05:00 +16°C° 0 mm 2 mps 749 mmHg 96%
06:00 +18°C° 0 mm 3 mps 749 mmHg 92%
07:00 +19°C° 0 mm 3 mps 749 mmHg 88%
08:00 +20°C° 0 mm 3 mps 749 mmHg 84%
09:00 +22°C° 0 mm 3 mps 749 mmHg 77%
10:00 +23°C° 0 mm 4 mps 750 mmHg 70%
11:00 +25°C° 0 mm 4 mps 750 mmHg 63%
12:00 +25°C° 0 mm 4 mps 750 mmHg 60%
13:00 +26°C° 0 mm 4 mps 750 mmHg 58%
14:00 +26°C° 0 mm 5 mps 749 mmHg 56%
15:00 +25°C° 0 mm 4 mps 750 mmHg 58%
16:00 +23°C° 0 mm 4 mps 750 mmHg 61%
17:00 +23°C° 0 mm 4 mps 750 mmHg 63%
18:00 +21°C° 0 mm 4 mps 750 mmHg 69%
19:00 +19°C° 0 mm 4 mps 750 mmHg 74%
20:00 +17°C° 0 mm 4 mps 750 mmHg 79%
21:00 +16°C° 0 mm 3 mps 751 mmHg 81%
22:00 +14°C° 0 mm 3 mps 751 mmHg 83%
23:00 +13°C° 0 mm 3 mps 751 mmHg 84%

12 August, Wednesday

Time Temperature Precipitation Wind Pressure Humidity
00:00 +12°C° 0 mm 3 mps 751 mmHg 87%
01:00 +11°C° 0 mm 3 mps 751 mmHg 89%
02:00 +11°C° 0 mm 3 mps 751 mmHg 92%
03:00 +11°C° 0 mm 3 mps 751 mmHg 92%
04:00 +11°C° 0 mm 3 mps 752 mmHg 92%
05:00 +11°C° 0 mm 3 mps 752 mmHg 92%
06:00 +12°C° 0 mm 3 mps 752 mmHg 87%
07:00 +13°C° 0 mm 3 mps 752 mmHg 83%
08:00 +14°C° 0 mm 3 mps 752 mmHg 78%
09:00 +14°C° 0 mm 3 mps 752 mmHg 75%
10:00 +15°C° 0 mm 4 mps 752 mmHg 71%
11:00 +17°C° 0 mm 4 mps 753 mmHg 68%
12:00 +17°C° 0.1 mm 4 mps 752 mmHg 66%
13:00 +18°C° 0.1 mm 4 mps 752 mmHg 64%
14:00 +19°C° 0.1 mm 4 mps 752 mmHg 63%
15:00 +18°C° 0.1 mm 3 mps 752 mmHg 66%
16:00 +18°C° 0.1 mm 3 mps 752 mmHg 69%
17:00 +18°C° 0.1 mm 3 mps 753 mmHg 72%
18:00 +17°C° 0 mm 2 mps 753 mmHg 76%
19:00 +15°C° 0 mm 2 mps 753 mmHg 80%
20:00 +14°C° 0 mm 2 mps 753 mmHg 85%
21:00 +14°C° 0 mm 2 mps 753 mmHg 87%
22:00 +13°C° 0 mm 2 mps 753 mmHg 89%
23:00 +12°C° 0 mm 2 mps 753 mmHg 91%

13 August, Thursday

Time Temperature Precipitation Wind Pressure Humidity
00:00 +12°C° 0 mm 2 mps 753 mmHg 91%
01:00 +12°C° 0 mm 2 mps 753 mmHg 92%
02:00 +10°C° 0 mm 2 mps 753 mmHg 93%
03:00 +10°C° 0 mm 2 mps 753 mmHg 93%
04:00 +10°C° 0 mm 2 mps 753 mmHg 93%
05:00 +10°C° 0 mm 1 mps 753 mmHg 93%
06:00 +12°C° 0 mm 1 mps 753 mmHg 87%
07:00 +14°C° 0 mm 2 mps 753 mmHg 81%
08:00 +16°C° 0 mm 2 mps 753 mmHg 74%
09:00 +17°C° 0 mm 2 mps 753 mmHg 68%
10:00 +18°C° 0 mm 2 mps 753 mmHg 63%
11:00 +20°C° 0 mm 2 mps 753 mmHg 57%
12:00 +20°C° 0 mm 2 mps 753 mmHg 57%
13:00 +20°C° 0 mm 2 mps 753 mmHg 57%
14:00 +20°C° 0 mm 2 mps 752 mmHg 56%
15:00 +21°C° 0 mm 1 mps 752 mmHg 59%
16:00 +21°C° 0 mm 1 mps 752 mmHg 61%
17:00 +20°C° 0 mm 1 mps 752 mmHg 64%
18:00 +19°C° 0 mm 1 mps 752 mmHg 68%
19:00 +16°C° 0 mm 1 mps 752 mmHg 72%
20:00 +15°C° 0 mm 1 mps 752 mmHg 77%
21:00 +13°C° 0 mm 0 mps 752 mmHg 78%
22:00 +13°C° 0 mm 0 mps 752 mmHg 79%
23:00 +12°C° 0 mm 0 mps 752 mmHg 80%
Show more